User: anonymous   Login
Location: *
(0.1100°N, 5.5000°E)
Time: 03:28:07
(UTC+00:00)
Language:

FUSE - Orbit

View from above orbital plane
View from above orbital plane
View from above satellite
View from above satellite

Ground track
Ground track

The orbit data is extracted from the following two-line orbital elements,

1 25791U 99035A   24110.53629346  .00001090  00000-0  26448-3 0  9993
2 25791  24.9832 179.3356 0010486  51.6475 308.4974 14.43461697309872
Epoch (UTC): 19 April 2024 12:52:15
Eccentricity: 0.0010486
inclination: 24.9832°
perigee height: 739 km
apogee height: 754 km
right ascension of ascending node: 179.3356°
argument of perigee: 51.6475°
revolutions per day: 14.43461697
mean anomaly at epoch: 308.4974°
orbit number at epoch: 30987

The dashed part of the orbit path shows where the satellite is in the earth's shadow,  

DLR